[[{"header":{"parameterUnit":"m.s-1","parameterCategory":1,"la1":30.2991,"la2":30.254,"lo1":-89.0895,"lo2":-89.0444,"dy":0.0017,"dx":0.0017,"nx":28,"ny":28,"refTime":"2025-01-14T09:00:00:Z","depth":0,"parameterNumber":2,"parameterNumberName":"U-component_of_WINDS"},"data":[0,0,0,0,0,0,0,0,0,0,0,0,0,0,0,0,0,0,0,0,0,0,0,0,0,0,0,0,0,0,0,0,0,0,0,0,0,0,0,0,0,0,0,0,0,0,0,0,0,0,0,0,0,0,0,0,0,0,-0.7737,-0.7738,0,-0.7833,-0.7834,-0.7835,-0.7819,-0.7817,-0.7815,-0.7814,-0.7916,-0.7921,-0.7925,0,0,0,0,0,0,0,0,0,0,0,0,0,-0.7544,-0.7548,-0.7737,-0.7738,-0.774,-0.7833,-0.7834,-0.7836,-0.7819,-0.7817,-0.7815,-0.7813,-0.7915,-0.792,-0.7925,0,0,0,0,0,0,0,0,0,0,0,0,0,-0.7633,-0.7549,-0.7737,-0.7742,-0.7744,-0.7833,-0.7834,-0.7836,-0.7819,-0.7817,-0.7814,-0.7812,-0.7913,-0.792,-0.7926,-0.8017,0,0,-0.7946,-0.7949,0,0,0,0,0,0,0,0,-0.7628,-0.764,-0.774,-0.7742,-0.7744,-0.7811,-0.7804,-0.7897,-0.782,-0.7791,-0.7814,-0.7811,-0.7884,-0.7892,-0.7916,-0.8021,-0.8026,-0.7946,-0.795,-0.7953,-0.7955,0,0,0,0,0,0,0,-0.7622,-0.7636,-0.7775,-0.7742,-0.7744,-0.7742,-0.7751,-0.7821,-0.7851,-0.7793,-0.7792,-0.7804,-0.7884,-0.791,-0.7919,-0.8027,-0.7946,-0.7952,-0.7956,-0.7958,-0.8214,-0.8217,0,0,0,0,0,0,-0.7613,-0.7631,-0.7772,-0.7778,-0.7678,-0.7747,-0.7758,-0.7792,-0.785,-0.7856,-0.7806,-0.7802,-0.79,-0.7911,-0.7922,-0.8034,-0.7953,-0.7959,-0.7963,-0.8211,-0.8215,-0.8218,0,0,0,0,0,0,-0.7609,-0.7626,-0.7768,-0.7704,-0.7722,-0.7753,-0.7792,-0.7796,-0.7821,-0.7859,-0.7865,-0.7826,-0.7899,-0.7913,-0.7994,-0.8037,-0.7962,-0.7968,-0.8208,-0.8213,-0.8217,-0.8257,0,0,0,0,0,0,-0.7604,-0.7625,-0.7658,-0.7705,-0.7726,-0.7837,-0.7794,-0.7799,-0.7832,-0.7829,-0.788,-0.7886,-0.7898,-0.7984,-0.8,-0.8045,-0.7973,-0.8204,-0.821,-0.8215,-0.8252,-0.8263,-0.8271,0,0,0,0,0,-0.7597,-0.7667,-0.766,-0.7677,-0.7768,-0.7839,-0.7851,-0.7862,-0.7835,-0.7871,-0.7895,-0.7884,-0.8029,-0.7992,-0.801,-0.8058,-0.8202,-0.8208,-0.8215,-0.8248,-0.8261,-0.8271,0,0,0,0,0,0,-0.7626,-0.7673,-0.7666,-0.7753,-0.7792,-0.7836,-0.7881,-0.7875,-0.7924,-0.7919,-0.7931,-0.7943,-0.8025,-0.8049,-0.8007,-0.815,-0.8112,-0.8122,-0.8131,-0.8143,-0.8153,-0.8146,-0.7978,0,0,0,0,0,-0.7642,-0.7694,-0.7733,-0.7806,-0.7825,-0.785,-0.7881,-0.7886,-0.7928,-0.7945,-0.7975,-0.8018,-0.8073,-0.8109,-0.8162,-0.8255,-0.8267,-0.8297,-0.8306,-0.8314,-0.8323,-0.8377,-0.8391,-0.824,-0.824,-0.824,0,0,-0.7676,-0.7708,-0.7741,-0.7812,-0.7843,-0.7899,-0.7864,-0.7924,-0.7967,-0.7955,-0.8033,-0.8056,-0.8105,-0.8192,-0.8233,-0.8215,-0.8368,-0.8322,-0.8328,-0.8334,-0.8385,-0.8399,-0.8412,-0.8244,-0.8243,-0.8243,0,0,-0.7768,-0.7796,-0.7861,-0.7892,-0.7939,-0.7955,-0.7971,-0.8016,-0.8031,-0.8109,-0.8102,-0.8153,-0.8247,-0.8283,-0.8313,-0.8418,-0.8412,-0.8435,-0.8486,-0.8538,-0.855,-0.8561,-0.8601,-0.8615,-0.8444,-0.8444,-0.8444,0,-0.7805,-0.7887,-0.7895,-0.7957,-0.7989,-0.7979,-0.8046,-0.8077,-0.8139,-0.8163,-0.8142,-0.8261,-0.8292,-0.8389,-0.8415,-0.8439,-0.8459,-0.8431,-0.8547,-0.8558,-0.8568,-0.8607,-0.8621,-0.8447,-0.8447,-0.8447,-0.8446,0,-0.7932,-0.799,-0.8036,-0.8096,-0.8133,-0.8197,-0.8216,-0.8254,-0.8255,-0.8274,-0.8355,-0.8392,-0.8453,-0.8476,-0.8478,-0.8574,-0.8562,-0.8544,-0.8507,-0.8585,-0.8622,-0.8636,-0.8451,-0.845,-0.8449,-0.8449,0,0,-0.8046,-0.8108,-0.8126,-0.8153,-0.8205,-0.825,-0.8314,-0.8373,-0.8406,-0.8449,-0.8505,-0.8585,-0.8569,-0.8603,-0.8609,-0.8654,-0.8739,-0.8631,-0.8632,-0.8652,-0.8849,-0.8864,-0.8881,-0.8733,-0.8736,-0.8738,-0.8846,0,-0.8144,-0.8255,-0.8265,-0.8366,-0.842,-0.8412,-0.8468,-0.8507,-0.8526,-0.8576,-0.8598,-0.8655,-0.8628,-0.8649,-0.8693,-0.8719,-0.8779,-0.8711,-0.8788,-0.879,-0.8778,-0.8899,-0.8915,-0.9015,-0.886,-0.8862,-0.8864,0,-0.8273,-0.832,-0.8427,-0.8471,-0.8495,-0.8545,-0.86,-0.8647,-0.8692,-0.8702,-0.8741,-0.8741,-0.8809,-0.8768,-0.8863,-0.8817,-0.8849,-0.8866,-0.887,-0.888,-0.8833,-0.8915,-0.9047,-0.9063,-0.8886,-0.8884,-0.8883,0,-0.8349,-0.8438,-0.8513,-0.8537,-0.8591,-0.8627,-0.8651,-0.8692,-0.8727,-0.8776,-0.8799,-0.8855,-0.8887,-0.8931,-0.8948,-0.8915,-0.9043,-0.9002,-0.9056,-0.9056,-0.9085,-0.9084,-0.9227,-0.9102,-0.9101,-0.9101,-0.9101,0,-0.8459,-0.8525,-0.8548,-0.8595,-0.867,-0.868,-0.8754,-0.8776,-0.8814,-0.8866,-0.8862,-0.8912,-0.8929,-0.8983,-0.8996,-0.9074,-0.9088,-0.91,-0.9103,-0.9102,-0.9101,-0.9125,-0.9119,-0.9105,-0.9104,-0.9103,-0.9103,0,-0.8556,-0.8574,-0.8656,-0.87,-0.8713,-0.8766,-0.8804,-0.8851,-0.8868,-0.8935,-0.8952,-0.8981,-0.9043,-0.9063,-0.9139,-0.9148,-0.924,-0.9236,-0.9225,-0.9226,-0.928,-0.9275,-0.9445,-0.9469,-0.9326,-0.9327,-0.9328,0,-0.8626,-0.8677,-0.8726,-0.876,-0.8786,-0.8841,-0.8876,-0.8889,-0.8926,-0.8981,-0.9022,-0.9083,-0.9133,-0.9234,-0.9263,-0.9321,-0.932,-0.9376,-0.9329,-0.9327,-0.9324,-0.9322,-0.9328,-0.9385,-0.9387,-0.9388,-0.9389,0,-0.8749,-0.8756,-0.8806,-0.8861,-0.8903,-0.8947,-0.8989,-0.9018,-0.9037,-0.908,-0.9143,-0.9182,-0.9259,-0.9321,-0.9381,-0.9408,-0.9403,-0.9403,-0.9419,-0.9419,-0.9412,-0.9419,-0.9251,-0.94,-0.9399,-0.9398,-0.9397,-0.9397,-0.8837,-0.8882,-0.8924,-0.8981,-0.9014,-0.9054,-0.91,-0.9123,-0.9176,-0.9239,-0.9243,-0.9313,-0.9357,-0.9436,-0.9466,-0.9522,-0.9506,-0.9529,-0.9535,-0.9541,-0.9547,-0.9401,-0.9533,-0.9532,-0.9532,-0.9532,-0.9532,0,-0.8962,-0.8989,-0.9041,-0.91,-0.9145,-0.9134,-0.9181,-0.922,-0.9281,-0.9322,-0.9371,-0.9445,-0.9506,-0.9539,-0.96,-0.9638,-0.9638,-0.9654,-0.9653,-0.966,-0.9556,-0.9537,-0.9654,-0.9654,-0.9654,-0.9654,-0.9654,-0.9654,-0.9033,-0.911,-0.9121,-0.9215,-0.9241,-0.9308,-0.9336,-0.9373,-0.9406,-0.9489,-0.9538,-0.9559,-0.9598,-0.9662,-0.9718,-0.9726,-0.975,-0.9769,-0.9776,-0.9679,-0.9666,-0.9655,-0.9637,-0.9773,-0.9773,-0.9875,-0.9876,-0.9877]},{"header":{"parameterUnit":"m.s-1","parameterCategory":1,"la1":30.2991,"la2":30.254,"lo1":-89.0895,"lo2":-89.0444,"dy":0.0017,"dx":0.0017,"nx":28,"ny":28,"refTime":"2025-01-14T09:00:00:Z","depth":0,"parameterNumber":3,"parameterNumberName":"V-component_of_WINDS"},"data":[0,0,0,0,0,0,0,0,0,0,0,0,0,0,0,0,0,0,0,0,0,0,0,0,0,0,0,0,0,0,0,0,0,0,0,0,0,0,0,0,0,0,0,0,0,0,0,0,0,0,0,0,0,0,0,0,0,0,-5.3696,-5.3697,0,-5.3813,-5.3815,-5.3816,-5.373,-5.3726,-5.3722,-5.3718,-5.3834,-5.384,-5.3847,0,0,0,0,0,0,0,0,0,0,0,0,0,-5.3392,-5.3398,-5.3696,-5.3697,-5.3699,-5.3813,-5.3815,-5.3816,-5.373,-5.3726,-5.3721,-5.3717,-5.3832,-5.384,-5.3848,0,0,0,0,0,0,0,0,0,0,0,0,0,-5.3518,-5.34,-5.3695,-5.367,-5.3669,-5.3813,-5.3815,-5.3817,-5.3731,-5.3726,-5.372,-5.3715,-5.3829,-5.3839,-5.3849,-5.4023,0,0,-5.3879,-5.3883,0,0,0,0,0,0,0,0,-5.3511,-5.3529,-5.3672,-5.3672,-5.3671,-5.3751,-5.375,-5.3886,-5.3733,-5.3707,-5.3718,-5.3712,-5.3811,-5.3822,-5.3856,-5.4029,-5.4033,-5.388,-5.3886,-5.389,-5.3893,0,0,0,0,0,0,0,-5.3502,-5.3524,-5.3742,-5.3674,-5.3673,-5.3651,-5.3662,-5.3775,-5.3789,-5.3709,-5.3703,-5.3718,-5.3809,-5.3847,-5.3858,-5.4035,-5.3879,-5.3888,-5.3894,-5.3898,-5.4356,-5.4362,0,0,0,0,0,0,-5.3497,-5.3517,-5.3738,-5.3745,-5.3575,-5.3661,-5.3674,-5.3731,-5.3788,-5.3791,-5.3723,-5.3714,-5.3833,-5.3847,-5.3862,-5.407,-5.389,-5.3899,-5.3905,-5.435,-5.4357,-5.4364,0,0,0,0,0,0,-5.3491,-5.3517,-5.3733,-5.363,-5.3656,-5.3672,-5.3737,-5.3736,-5.3774,-5.3799,-5.38,-5.3759,-5.3829,-5.3848,-5.3984,-5.4073,-5.3904,-5.3913,-5.4342,-5.4352,-5.4361,-5.4488,0,0,0,0,0,0,-5.3482,-5.3516,-5.3583,-5.3632,-5.3662,-5.3856,-5.3742,-5.3743,-5.3792,-5.3781,-5.3833,-5.3836,-5.3826,-5.397,-5.3994,-5.4083,-5.392,-5.4334,-5.4347,-5.4358,-5.4476,-5.45,-5.4521,0,0,0,0,0,-5.3472,-5.3614,-5.3587,-5.3614,-5.3747,-5.3861,-5.3878,-5.3864,-5.3799,-5.3867,-5.3882,-5.3834,-5.4059,-5.3984,-5.4011,-5.4105,-5.4329,-5.4343,-5.4357,-5.4466,-5.4496,-5.4521,0,0,0,0,0,0,-5.3573,-5.3619,-5.3591,-5.3753,-5.3804,-5.3846,-5.3931,-5.3897,-5.3966,-5.3953,-5.3931,-5.3944,-5.4087,-5.4109,-5.4025,-5.4276,-5.4183,-5.4203,-5.4257,-5.4286,-5.4308,-5.43,-5.3929,0,0,0,0,0,-5.3615,-5.3706,-5.374,-5.388,-5.3907,-5.3915,-5.3964,-5.395,-5.4001,-5.4021,-5.4047,-5.4097,-5.4179,-5.4233,-5.431,-5.4478,-5.4488,-5.4555,-5.4578,-5.4597,-5.4615,-5.4705,-5.4736,-5.441,-5.441,-5.4409,0,0,-5.3701,-5.3738,-5.3796,-5.3901,-5.3939,-5.4032,-5.3934,-5.4036,-5.4104,-5.4036,-5.4167,-5.4187,-5.4242,-5.4395,-5.4463,-5.4418,-5.4707,-5.4615,-5.4629,-5.4637,-5.4723,-5.4753,-5.4781,-5.4419,-5.4418,-5.4416,0,0,-5.3906,-5.3943,-5.4064,-5.4104,-5.4163,-5.4167,-5.4196,-5.4244,-5.4256,-5.4387,-5.4338,-5.4417,-5.4559,-5.4599,-5.4639,-5.4859,-5.4817,-5.4884,-5.5004,-5.5092,-5.5118,-5.514,-5.5219,-5.5248,-5.4901,-5.4902,-5.4902,0,-5.4006,-5.4146,-5.413,-5.4236,-5.4284,-5.4228,-5.4349,-5.4388,-5.4468,-5.4502,-5.4449,-5.4626,-5.4658,-5.482,-5.4874,-5.4907,-5.4939,-5.4879,-5.5116,-5.5138,-5.5159,-5.5234,-5.5264,-5.491,-5.4909,-5.4908,-5.4907,0,-5.4265,-5.4363,-5.4453,-5.4534,-5.4591,-5.4704,-5.4704,-5.4763,-5.4744,-5.4753,-5.4886,-5.4923,-5.5007,-5.5043,-5.5024,-5.5203,-5.5173,-5.5119,-5.5025,-5.5198,-5.5268,-5.5297,-5.4921,-5.4918,-5.4916,-5.4914,0,0,-5.4539,-5.461,-5.4643,-5.4679,-5.474,-5.4814,-5.4924,-5.5007,-5.5058,-5.5115,-5.5206,-5.5327,-5.5277,-5.5322,-5.5306,-5.5384,-5.5556,-5.532,-5.5321,-5.5363,-5.5755,-5.5796,-5.583,-5.5529,-5.5534,-5.5538,-5.5751,0,-5.4748,-5.4942,-5.493,-5.5112,-5.5201,-5.5149,-5.5244,-5.5291,-5.5303,-5.5378,-5.539,-5.5476,-5.5404,-5.5431,-5.5505,-5.552,-5.5635,-5.5504,-5.5612,-5.5617,-5.5602,-5.5867,-5.5911,-5.611,-5.5778,-5.5783,-5.5786,0,-5.5018,-5.5086,-5.5277,-5.5324,-5.5361,-5.5448,-5.5523,-5.5596,-5.5647,-5.565,-5.57,-5.5672,-5.5781,-5.5684,-5.5834,-5.5746,-5.5789,-5.5803,-5.581,-5.5821,-5.5713,-5.5885,-5.6173,-5.6203,-5.5829,-5.5825,-5.5822,0,-5.5199,-5.5338,-5.547,-5.5503,-5.5561,-5.5623,-5.565,-5.5695,-5.5746,-5.581,-5.5843,-5.5919,-5.596,-5.6019,-5.6011,-5.5942,-5.6164,-5.6066,-5.6169,-5.6169,-5.6219,-5.6216,-5.6519,-5.6245,-5.6245,-5.6244,-5.6244,0,-5.5434,-5.5553,-5.5553,-5.5635,-5.5766,-5.575,-5.588,-5.59,-5.5941,-5.6024,-5.5982,-5.6061,-5.6045,-5.6123,-5.6118,-5.6243,-5.6261,-5.6266,-5.6263,-5.6271,-5.627,-5.63,-5.6286,-5.6252,-5.6251,-5.6249,-5.6248,0,-5.566,-5.5664,-5.5805,-5.5849,-5.5862,-5.5958,-5.5994,-5.607,-5.6078,-5.6184,-5.6207,-5.6219,-5.6309,-5.6307,-5.6408,-5.6404,-5.6558,-5.6538,-5.6542,-5.6538,-5.6641,-5.6632,-5.6974,-5.7018,-5.6715,-5.6718,-5.672,0,-5.581,-5.5901,-5.5954,-5.6008,-5.6039,-5.6126,-5.6178,-5.6165,-5.622,-5.6285,-5.6354,-5.644,-5.6508,-5.6653,-5.667,-5.6747,-5.6729,-5.6844,-5.6741,-5.6745,-5.6732,-5.6728,-5.6737,-5.6865,-5.6868,-5.6871,-5.6873,0,-5.6077,-5.6074,-5.6151,-5.623,-5.6293,-5.6354,-5.6409,-5.6455,-5.6448,-5.6512,-5.6604,-5.6658,-5.6762,-5.6847,-5.6921,-5.6946,-5.6909,-5.6905,-5.6933,-5.6942,-5.6941,-5.6944,-5.6598,-5.6898,-5.6895,-5.6893,-5.6892,-5.6891,-5.627,-5.6348,-5.6398,-5.6486,-5.6526,-5.6579,-5.6654,-5.6671,-5.6748,-5.6833,-5.682,-5.6923,-5.697,-5.7066,-5.7098,-5.7177,-5.7137,-5.7177,-5.7187,-5.7198,-5.721,-5.6927,-5.719,-5.719,-5.7189,-5.7189,-5.7188,0,-5.6535,-5.6565,-5.6645,-5.6725,-5.6794,-5.6753,-5.6812,-5.6872,-5.6964,-5.7012,-5.708,-5.7186,-5.7269,-5.7292,-5.7371,-5.743,-5.7415,-5.7451,-5.7447,-5.7454,-5.7241,-5.721,-5.7462,-5.7462,-5.7462,-5.7462,-5.7462,-5.7462,-5.6681,-5.6812,-5.6815,-5.6965,-5.6993,-5.7095,-5.7133,-5.7181,-5.7219,-5.734,-5.7409,-5.7424,-5.7462,-5.7544,-5.7617,-5.7622,-5.7653,-5.7697,-5.7695,-5.7496,-5.7469,-5.7442,-5.7413,-5.7704,-5.7704,-5.7901,-5.7902,-5.7904]}]]